Vorticity
3 1 4 3 8 -1 -0 2 6 2 2 -1 7 9 4 1 4 5 10 8 5 3 7 5 6 5 5 3 4 4 4 7
3 4 6 7 4 1 3 5 5 9 6 14 -12 3 6 2 7 9 5 2 8 9 6 4 4 7 7 6 3 2 5 2
6 6 5 4 5 8 6 1 3 1 -2 -17 9 5 -2 13 7 3 7 8 3 5 5 5 1 0 2 3 3 6 8 10
3 5 7 4 2 3 6 5 5 6 7 8 5 3 12 3 6 6 2 6 4 2 1 2 3 5 6 6 5 9 9 8
4 7 5 8 10 10 12 11 8 11 9 8 3 6 7 5 5 3 4 1 1 3 5 7 8 7 5 9 13 9 9 11
4 9 12 14 12 11 10 11 13 9 8 6 3 6 6 4 3 1 1 1 1 5 6 4 4 9 11 10 11 11 12 5
9 9 11 10 11 11 9 8 6 6 6 8 11 6 2 2 3 2 0 2 8 7 8 11 13 10 9 9 11 12 9 6
7 6 8 7 8 7 9 8 6 3 4 3 1 1 1 1 3 4 5 6 6 9 9 9 10 10 11 10 9 9 10 11
6 11 11 13 13 10 5 7 9 6 2 1 2 0 1 5 7 7 11 14 15 14 12 11 11 12 11 10 10 10 12 14
24 20 11 8 7 11 7 5 2 -1 0 2 -1 3 4 6 8 13 16 14 14 14 13 13 13 13 13 13 13 17 25 32
8 11 10 8 6 4 4 1 -1 2 3 2 4 4 5 9 16 16 11 12 12 10 14 15 15 16 15 16 23 28 31 28
8 7 4 3 4 3 0 -0 1 2 3 4 4 5 8 15 17 10 12 13 12 19 19 14 17 21 24 25 26 29 24 13
4 2 3 2 3 1 1 0 1 3 4 4 6 6 11 14 13 5 6 7 25 4 24 23 18 19 24 23 27 14 8 8
1 5 3 2 -0 3 4 5 5 6 5 5 9 12 12 8 6 6 15 29 24 10 3 21 26 28 29 26 13 7 10 7
4 6 1 -1 1 2 4 5 4 4 6 8 9 12 9 4 19 25 56 19 2 27 -14 38 35 28 16 7 8 8 7 10
2 2 0 2 6 4 5 5 5 7 9 7 9 11 11 15 26 15 26 -29 19 24 -22 49 14 10 6 10 7 8 11 16
3 1 5 3 5 4 4 4 6 6 6 12 8 12 17 23 30 61 14 -32 23 13 38 13 7 8 8 7 9 13 19 17
3 5 4 4 2 3 4 6 7 8 10 9 10 15 25 28 21 45 5 14 32 -4 25 7 10 9 7 9 14 18 18 19
5 4 4 2 3 5 7 8 8 11 12 12 15 28 29 24 28 34 21 7 2 33 7 11 10 7 10 12 18 18 21 21
Height
5821 5819 5817 5817 5817 5813 5809 5806 5802 5800 5795 5791 5790 5783 5779 5773 5771 5767 5763 5758 5753 5747 5743 5738 5733 5730 5727 5722 5720 5717 5713 5709
5818 5816 5814 5812 5809 5808 5803 5802 5797 5788 5786 5785 5781 5773 5767 5763 5758 5754 5749 5745 5741 5737 5732 5727 5723 5719 5713 5707 5702 5698 5694 5689
5817 5816 5812 5809 5806 5803 5799 5795 5790 5786 5780 5775 5772 5767 5762 5756 5750 5745 5740 5734 5729 5723 5717 5712 5708 5703 5698 5691 5685 5681 5677 5669
5817 5815 5811 5806 5802 5798 5794 5789 5784 5779 5774 5769 5765 5760 5755 5749 5742 5735 5729 5723 5716 5709 5703 5697 5690 5684 5678 5671 5664 5659 5654 5648
5812 5809 5803 5800 5796 5792 5787 5782 5776 5771 5765 5761 5757 5751 5744 5739 5732 5725 5717 5709 5702 5695 5688 5679 5671 5665 5657 5650 5643 5636 5630 5625
5804 5803 5798 5794 5789 5784 5777 5773 5769 5763 5757 5752 5748 5742 5735 5727 5720 5712 5703 5694 5685 5677 5668 5660 5651 5643 5636 5628 5622 5614 5608 5601
5788 5786 5786 5783 5779 5773 5768 5763 5757 5754 5750 5745 5739 5732 5724 5715 5707 5699 5690 5680 5670 5658 5647 5636 5628 5618 5610 5602 5594 5588 5580 5575
5780 5776 5774 5774 5771 5766 5762 5756 5749 5741 5735 5728 5721 5713 5705 5697 5689 5681 5670 5659 5647 5636 5626 5613 5603 5595 5587 5578 5569 5561 5555 5549
5773 5765 5762 5758 5758 5754 5748 5744 5740 5735 5727 5720 5713 5704 5695 5685 5676 5664 5652 5638 5625 5614 5605 5593 5580 5572 5564 5555 5544 5533 5525 5517
5768 5765 5761 5756 5750 5744 5740 5734 5728 5722 5715 5707 5696 5685 5673 5663 5652 5640 5628 5616 5604 5591 5580 5571 5558 5547 5537 5528 5519 5510 5499 5490
5759 5754 5748 5744 5740 5736 5731 5724 5717 5709 5700 5690 5679 5668 5654 5643 5631 5618 5606 5594 5582 5568 5557 5545 5533 5522 5510 5501 5493 5484 5477 5471
5750 5745 5741 5738 5734 5727 5720 5712 5704 5696 5685 5673 5661 5649 5637 5622 5610 5597 5585 5571 5558 5546 5534 5523 5511 5500 5490 5480 5471 5465 5459 5453
5744 5740 5734 5728 5723 5716 5708 5700 5691 5681 5671 5658 5646 5633 5618 5604 5590 5575 5564 5547 5536 5525 5512 5498 5486 5476 5468 5461 5455 5449 5443 5438
5739 5732 5727 5722 5715 5708 5698 5687 5677 5665 5651 5638 5623 5606 5594 5581 5567 5551 5538 5521 5511 5502 5491 5477 5466 5458 5452 5446 5441 5435 5428 5422
5729 5723 5716 5709 5701 5692 5681 5670 5658 5644 5630 5616 5603 5589 5573 5557 5543 5527 5514 5502 5493 5485 5476 5462 5452 5445 5440 5434 5428 5422 5414 5406
5717 5711 5704 5696 5686 5675 5664 5653 5640 5625 5609 5595 5584 5570 5554 5537 5523 5510 5500 5488 5479 5469 5464 5452 5443 5436 5429 5422 5416 5408 5399 5390
5707 5700 5691 5682 5671 5661 5650 5636 5621 5606 5590 5574 5561 5548 5533 5519 5505 5495 5487 5476 5467 5459 5454 5444 5434 5426 5418 5411 5403 5393 5383 5373
5696 5687 5678 5667 5657 5645 5630 5616 5602 5590 5575 5559 5542 5530 5515 5500 5487 5478 5471 5463 5455 5451 5444 5434 5424 5416 5407 5398 5388 5378 5368 5359
5682 5672 5661 5650 5638 5626 5614 5601 5587 5571 5557 5540 5523 5509 5497 5484 5473 5463 5457 5451 5447 5442 5434 5425 5415 5405 5397 5386 5376 5366 5356 5347